Weather Roundup
Issued by NWS

Home | Current Version | Previous Version | Graphics & Text | Print | Product List | Glossary Off
Versions: 1 2 3 4 5 6 7 8 9 10 11 12 13 14 15 16 17 18 19 20 21 22 23 24 25 26 27 28 29 30 31 32 33 34 35 36 37 38 39 40 41 42 43 44 45 46 47 48 49 50

219
NZUS93 KARX 210010
HRRWXR

CURRENT HOURLY OBSERVATIONS ACROSS
MUCH OF THE UPPER MISSISSIPPI VALLEY
NATIONAL WEATHER SERVICE LA CROSSE WI
700 PM CDT FRI APR 20 2018


...SOUTHEAST MINNESOTA...


CITY           SKY/WX    TMP DP  RH WIND       PRES   REMARKS
ROCHESTER      FAIR      42  28  57 SW5       30.43R
ROCHESTER/MAYO FAIR      47  24  39 SW5       30.44R
WINONA         FAIR      52  27  37 CALM      30.41R
AUSTIN         FAIR      43  23  45 CALM      30.43S
ALBERT LEA     FAIR      41  23  48 CALM      30.43S
DODGE CENTER   FAIR      43  28  56 CALM      30.44R
PRESTON        FAIR      43  17  35 CALM      30.43S
OWATONNA       FAIR      45  28  53 SE3       30.44R
FARIBAULT      NOT AVBL
$$

...ELSEWHERE IN MINNESOTA...


CITY           SKY/WX    TMP DP  RH WIND       PRES   REMARKS
MINNEAPOLIS    CLOUDY    50  22  33 S9        30.43R
INTNL FALLS    FAIR      56  21  25 NE5       30.33S
DULUTH         FAIR      53  26  35 S8        30.37R
RED WING       FAIR      50  12  22 S3        30.43R
REDWOOD FALLS  CLOUDY    39  32  76 SE7       30.43R WCI  34
MANKATO        FAIR      43  24  47 CALM      30.44R
WORTHINGTON    CLOUDY    37  33  85 E6        30.41S WCI  32
FAIRMONT       CLOUDY    39  29  67 NE5       30.43S
$$

...SOUTHWEST WISCONSIN...


CITY           SKY/WX    TMP DP  RH WIND       PRES   REMARKS
LA CROSSE      FAIR      53  26  35 SW7       30.41S
PRAIRIE DU CHI FAIR      56  25  30 CALM      30.40R
BOSCOBEL       FAIR      57  24  28 CALM      30.40S
LONE ROCK      FAIR      56  28  34 E3        30.40S
PLATTEVILLE    FAIR      55  29  36 S3        30.40R
FORT MC COY    FAIR      52  15  22 W3        30.42S
CAMP DOUGLAS   FAIR      50  17  26 CALM      30.41S
MAUSTON-NEW LI FAIR      53  13  20 SE3       30.40F
VIROQUA        FAIR      47  26  43 N3        30.40S
WIS DELLS      FAIR      51  15  23 E3        30.41S
$$

...ELSEWHERE IN WISCONSIN...


CITY           SKY/WX    TMP DP  RH WIND       PRES   REMARKS
MILWAUKEE      MOCLDY    48  19  31 SE6       30.44S
MADISON        MOCLDY    51  24  34 E8        30.41S
GREEN BAY      FAIR      49  20  31 SW7       30.42F
EAU CLAIRE     FAIR      51  18  27 W5        30.40S
BLACK RVR FLS  FAIR      53   7  15 SW3       30.41R
MEDFORD        FAIR      46  20  35 S3        30.40S
WAUSAU         FAIR      49  14  24 W6        30.39F
WIS RAPIDS     FAIR      54  10  17 SW5       30.41F
MARSHFIELD     FAIR      50  16  25 E5        30.39F
RICE LAKE      FAIR      49  19  29 CALM      30.42S
$$

...NORTHEAST IOWA...


CITY           SKY/WX    TMP DP  RH WIND       PRES   REMARKS
WATERLOO       FAIR      54  30  40 NE3       30.38R
DUBUQUE        FAIR      56  23  27 SE5       30.39S
DECORAH        FAIR      46  28  49 N6        30.41R
MASON CITY     CLOUDY    37  30  75 NE9       30.42R WCI  30
CHARLES CITY   FAIR      45  32  61 N7        30.41S
OELWEIN        FAIR      52  39  62 N8        30.39S
$$

...ELSEWHERE IN IOWA...


CITY           SKY/WX    TMP DP  RH WIND       PRES   REMARKS
DES MOINES     CLOUDY    58  25  28 E9        30.35R
IOWA CITY      FAIR      57  18  21 SE7       30.39S
FORT DODGE     MOSUNNY   48  42  80 NE8       30.39R
MARSHALLTOWN   CLOUDY    55  31  39 E6        30.37R
CEDAR RAPIDS   FAIR      57  22  25 SE7       30.37R
$$

...NORTHERN ILLINOIS...


CITY           SKY/WX    TMP DP  RH WIND       PRES   REMARKS
CHICAGO-OHARE  MOCLDY    53  11  18 E10       30.42S
CHICAGO-MIDWAY MOCLDY    53   8  16 E10       30.43F
MOLINE         FAIR      59  19  21 SE7       30.37S
ROCKFORD       MOCLDY    56  17  21 S3        30.41F
PEORIA         FAIR      59  22  24 SE7       30.38S
$$

NOTE: "FAIR" INDICATES FEW OR NO CLOUDS BELOW 12,000 FEET WITH NO
SIGNIFICANT WEATHER AND/OR OBSTRUCTIONS TO VISIBILITY. WIND
SPEEDS ARE IN MILES-PER-HOUR.




USA.gov is the U.S. government's official web portal to all federal, state and local government web resources and services.